Regional Weather Roundup
Issued by NWS

Home | Current Version | Previous Version | Text Only | Print | Product List | Glossary On
Versions: 1 2 3 4 5 6 7 8 9 10 11 12 13 14 15 16 17 18 19 20 21 22 23 24 25 26 27 28 29 30 31 32 33 34 35 36 37 38 39 40 41 42 43 44 45 46 47 48 49 50
000
ASUS44 KMEG 201810
RWRTN
TENNESSEE HOURLY STATE WEATHER ROUNDUP
NATIONAL WEATHER SERVICE MEMPHIS TN
100 PM CDT SUN APR 20 2014

TNZ002-004-019-021-049-052-054-088>092-201900-
WEST TENNESSEE

CITY           SKY/WX    TMP DP  RH WIND       PRES   REMARKS
MEMPHIS INTL   MOSUNNY   78  49  35 S6        30.18F
NWS MEMPHIS      N/A     79 N/A N/A MISG        N/A
JACKSON        MOSUNNY   77  44  30 VRB6      30.19F
DYERSBURG      MOSUNNY   77  46  33 S5        30.19F
UNION CITY     SUNNY     75  45  33 VRB5      30.18F
PARIS          SUNNY     76  41  28 SW5       30.19F
LEXINGTON      SUNNY     75  46  35 S8        30.19F
SAVANNAH       MOSUNNY   75  48  38 CALM      30.20
$$

TNZ008-025-027-028-033-062-065-066-201900-
NORTH MIDDLE TENNESSEE

CITY           SKY/WX    TMP DP  RH WIND       PRES   REMARKS
NASHVILLE      MOSUNNY   77  41  27 CALM      30.19F
DICKSON        SUNNY     75  39  27 VRB5      30.19F
PORTLAND         N/A     72  39  30 N3        30.19F
CLARKSVILLE    SUNNY     76  38  25 CALM      30.19F
SMYRNA         SUNNY     77  46  33 VRB5      30.20F
MURFREESBORO   SUNNY     75  45  34 CALM      30.20F
COOKEVILLE     SUNNY     77  45  31 CALM      30.20F
LIVINGSTON     SUNNY     73  40  30 VRB6      30.21F
GALLATIN       SUNNY     76  45  33 CALM      30.21F
CROSSVILLE     SUNNY     72  37  28 VRB6      30.22F
$$

TNZ061-075-076-078-094-096-097-201900-
SOUTH MIDDLE TENNESSEE

CITY           SKY/WX    TMP DP  RH WIND       PRES   REMARKS
LEWISBURG      SUNNY     76  46  34 E6        30.19F
FAYETTEVILLE   SUNNY     71  45  39 W3        30.21F
TULLAHOMA      SUNNY     73  43  33 CALM      30.21F
WINCHESTER     SUNNY     73  45  35 CALM      30.21F
MCMINNVILLE    SUNNY     73  45  35 VRB6      30.21F
COLUMBIA       SUNNY     79  55  44 N3        30.18F
SHELBYVILLE    SUNNY     75  52  43 CALM      30.22F
$$

TNZ017-018-042-046-047-201900-
NORTHEAST TENNESSEE

CITY           SKY/WX    TMP DP  RH WIND       PRES   REMARKS
TRI CITIES     MOSUNNY   70  30  22 VRB5      30.23F
ELIZABETHTON   CLEAR     66  30  26 CALM      30.22F
$$

TNZ012-013-036-069-073-074-201900-
CENTRAL EAST TENNESSEE

CITY           SKY/WX    TMP DP  RH WIND       PRES   REMARKS
KNOXVILLE      SUNNY     71  46  40 N6        30.21F
OAK RIDGE      SUNNY     75  41  29 VRB3      30.22F
$$

TNZ083-085-099-201900-
SOUTHEAST TENNESSEE

CITY           SKY/WX    TMP DP  RH WIND       PRES   REMARKS
CHATTANOOGA    MOSUNNY   74  46  36 NW3       30.20F
$$

SKY/WX REPORTED AS FAIR MEANS FEW OR NO CLOUDS BELOW
12 THOUSAND FEET.




USA.gov is the U.S. government's official web portal to all federal, state and local government web resources and services.